QPF
0.08 0.11 0.09 0.05 0.03 0.01 0.01 0.01 0.00 0.00 0.00 0.00 0.00 0.00 0.00 0.00 0.00 0.00 0.00 0.00 0.00 0.00 0.00 0.00 0.00 0.00 0.00 0.00 0.00 0.00 0.00 0.00 0.00 0.00 0.00 0.00 0.00 0.00 0.00 0.00 0.00 0.00 0.00 0.00
0.07 0.06 0.03 0.02 0.03 0.03 0.02 0.01 0.00 0.00 0.00 0.00 0.00 0.00 0.00 0.00 0.00 0.00 0.00 0.00 0.00 0.00 0.00 0.00 0.00 0.00 0.00 0.00 0.00 0.00 0.00 0.00 0.00 0.00 0.00 0.00 0.00 0.00 0.00 0.00 0.00 0.00 0.00 0.00
0.03 0.02 0.01 0.03 0.05 0.05 0.04 0.02 0.01 0.01 0.00 0.00 0.00 0.00 0.00 0.00 0.00 0.00 0.00 0.00 0.00 0.00 0.00 0.00 0.00 0.00 0.00 0.00 0.00 0.00 0.00 0.00 0.00 0.00 0.00 0.00 0.00 0.00 0.00 0.00 0.00 0.00 0.00 0.00
0.03 0.01 0.02 0.03 0.04 0.06 0.06 0.03 0.02 0.02 0.02 0.02 0.01 0.01 0.00 0.00 0.00 0.00 0.00 0.00 0.00 0.00 0.00 0.00 0.00 0.00 0.00 0.00 0.00 0.00 0.00 0.00 0.00 0.00 0.00 0.00 0.00 0.00 0.00 0.00 0.00 0.00 0.00 0.00
0.04 0.02 0.02 0.02 0.02 0.02 0.04 0.04 0.04 0.04 0.04 0.04 0.03 0.03 0.01 0.00 0.00 0.00 0.00 0.00 0.00 0.00 0.00 0.00 0.00 0.00 0.00 0.00 0.00 0.00 0.00 0.00 0.00 0.00 0.00 0.00 0.00 0.00 0.00 0.00 0.00 0.00 0.00 0.00
0.03 0.02 0.02 0.01 0.01 0.02 0.03 0.05 0.08 0.11 0.14 0.12 0.04 0.03 0.02 0.00 0.00 0.00 0.00 0.00 0.00 0.00 0.00 0.00 0.00 0.00 0.00 0.00 0.00 0.00 0.00 0.00 0.00 0.00 0.00 0.00 0.00 0.00 0.00 0.00 0.00 0.00 0.00 0.00
0.03 0.03 0.03 0.02 0.02 0.03 0.06 0.08 0.13 0.17 0.20 0.14 0.04 0.01 0.01 0.00 0.00 0.00 0.00 0.00 0.00 0.00 0.00 0.00 0.00 0.00 0.00 0.00 0.00 0.00 0.00 0.00 0.00 0.00 0.00 0.00 0.00 0.00 0.00 0.00 0.00 0.00 0.00 0.00
0.03 0.02 0.02 0.02 0.01 0.02 0.03 0.05 0.08 0.09 0.06 0.03 0.01 0.01 0.00 0.00 0.00 0.00 0.00 0.00 0.00 0.00 0.00 0.00 0.00 0.00 0.00 0.00 0.00 0.00 0.00 0.00 0.00 0.00 0.00 0.00 0.00 0.00 0.00 0.00 0.00 0.00 0.00 0.00
0.02 0.01 0.00 0.01 0.00 0.01 0.03 0.05 0.04 0.06 0.05 0.04 0.02 0.01 0.00 0.00 0.00 0.00 0.00 0.00 0.00 0.00 0.00 0.00 0.00 0.00 0.00 0.00 0.00 0.00 0.00 0.00 0.00 0.00 0.00 0.00 0.00 0.00 0.00 0.00 0.00 0.01 0.01 0.01
0.04 0.02 0.00 0.00 0.02 0.03 0.03 0.04 0.08 0.13 0.13 0.07 0.02 0.00 0.00 0.00 0.00 0.00 0.00 0.00 0.00 0.00 0.00 0.00 0.00 0.00 0.00 0.00 0.00 0.00 0.00 0.00 0.00 0.00 0.00 0.00 0.00 0.00 0.00 0.00 0.01 0.01 0.01 0.01
0.06 0.07 0.03 0.02 0.02 0.02 0.03 0.05 0.07 0.10 0.11 0.07 0.03 0.00 0.00 0.00 0.00 0.00 0.00 0.00 0.00 0.00 0.00 0.00 0.00 0.00 0.00 0.00 0.00 0.00 0.00 0.00 0.00 0.00 0.00 0.00 0.00 0.00 0.00 0.00 0.00 0.01 0.01 0.01
0.06 0.10 0.07 0.02 0.01 0.02 0.04 0.03 0.04 0.08 0.09 0.05 0.03 0.01 0.00 0.00 0.00 0.00 0.00 0.00 0.00 0.00 0.00 0.00 0.00 0.00 0.00 0.00 0.00 0.00 0.00 0.00 0.00 0.00 0.00 0.00 0.00 0.00 0.00 0.00 0.00 0.01 0.01 0.01
0.06 0.14 0.15 0.09 0.05 0.03 0.04 0.04 0.04 0.06 0.06 0.07 0.06 0.02 0.00 0.00 0.00 0.00 0.00 0.00 0.00 0.00 0.00 0.00 0.00 0.00 0.00 0.00 0.00 0.00 0.00 0.00 0.00 0.00 0.00 0.01 0.01 0.01 0.01 0.01 0.01 0.01 0.01 0.01
0.10 0.12 0.11 0.08 0.03 0.02 0.02 0.02 0.02 0.06 0.11 0.09 0.04 0.01 0.00 0.00 0.00 0.00 0.00 0.00 0.00 0.00 0.00 0.00 0.00 0.00 0.00 0.00 0.00 0.00 0.00 0.00 0.00 0.00 0.00 0.01 0.01 0.01 0.01 0.01 0.01 0.01 0.01 0.01
0.12 0.12 0.07 0.04 0.03 0.03 0.03 0.03 0.02 0.04 0.05 0.05 0.03 0.01 0.00 0.00 0.00 0.01 0.01 0.01 0.00 0.00 0.00 0.00 0.00 0.00 0.00 0.00 0.00 0.00 0.00 0.00 0.00 0.00 0.00 0.00 0.00 0.01 0.01 0.01 0.01 0.01 0.01 0.01
0.10 0.12 0.07 0.05 0.03 0.03 0.05 0.04 0.04 0.04 0.03 0.03 0.02 0.01 0.00 0.00 0.00 0.00 0.01 0.01 0.01 0.00 0.00 0.00 0.00 0.00 0.00 0.00 0.00 0.00 0.00 0.00 0.00 0.00 0.00 0.00 0.00 0.01 0.01 0.01 0.02 0.01 0.01 0.01
0.08 0.12 0.11 0.07 0.02 0.05 0.08 0.03 0.02 0.02 0.02 0.02 0.02 0.01 0.00 0.00 0.00 0.00 0.00 0.01 0.01 0.01 0.01 0.00 0.00 0.00 0.00 0.00 0.00 0.00 0.00 0.00 0.00 0.00 0.00 0.00 0.00 0.00 0.01 0.01 0.02 0.02 0.02 0.02
0.08 0.10 0.12 0.10 0.07 0.11 0.05 0.01 0.00 0.00 0.00 0.01 0.01 0.01 0.01 0.01 0.01 0.01 0.01 0.00 0.00 0.01 0.01 0.01 0.01 0.01 0.00 0.00 0.00 0.00 0.00 0.00 0.00 0.00 0.00 0.00 0.00 0.01 0.01 0.01 0.01 0.02 0.02 0.02
0.05 0.10 0.15 0.14 0.11 0.06 0.01 0.01 0.00 0.00 0.00 0.00 0.00 0.00 0.00 0.01 0.01 0.01 0.01 0.00 0.00 0.00 0.01 0.01 0.02 0.01 0.01 0.01 0.00 0.00 0.00 0.00 0.00 0.00 0.00 0.00 0.00 0.00 0.01 0.01 0.02 0.02 0.02 0.02
0.03 0.06 0.13 0.15 0.13 0.06 0.01 0.00 0.00 0.01 0.01 0.00 0.00 0.00 0.00 0.00 0.00 0.00 0.00 0.00 0.00 0.00 0.00 0.00 0.01 0.01 0.01 0.01 0.01 0.01 0.01 0.00 0.00 0.00 0.00 0.00 0.00 0.01 0.01 0.01 0.02 0.03 0.04 0.04
0.06 0.09 0.11 0.10 0.08 0.03 0.00 0.00 0.00 0.02 0.02 0.00 0.00 0.00 0.00 0.00 0.00 0.00 0.00 0.00 0.00 0.00 0.00 0.00 0.00 0.01 0.01 0.01 0.01 0.01 0.01 0.01 0.01 0.00 0.00 0.00 0.01 0.01 0.01 0.01 0.02 0.02 0.03 0.03
0.03 0.06 0.06 0.05 0.06 0.02 0.00 0.00 0.01 0.01 0.00 0.00 0.00 0.00 0.00 0.00 0.00 0.00 0.00 0.00 0.00 0.00 0.00 0.00 0.00 0.00 0.00 0.01 0.01 0.01 0.01 0.01 0.01 0.01 0.01 0.01 0.01 0.01 0.01 0.01 0.01 0.02 0.02 0.02
0.03 0.03 0.03 0.03 0.02 0.01 0.01 0.01 0.01 0.00 0.00 0.00 0.00 0.00 0.00 0.00 0.00 0.00 0.00 0.00 0.00 0.00 0.00 0.00 0.00 0.00 0.00 0.00 0.00 0.01 0.01 0.01 0.01 0.01 0.01 0.01 0.01 0.01 0.01 0.01 0.01 0.01 0.01 0.02
0.02 0.03 0.04 0.04 0.03 0.03 0.02 0.01 0.01 0.01 0.00 0.00 0.00 0.00 0.00 0.00 0.00 0.00 0.01 0.01 0.01 0.01 0.01 0.01 0.01 0.01 0.01 0.00 0.01 0.01 0.01 0.01 0.01 0.01 0.01 0.01 0.01 0.01 0.01 0.01 0.01 0.01 0.01 0.01
0.02 0.02 0.03 0.03 0.03 0.03 0.02 0.02 0.02 0.01 0.01 0.01 0.00 0.00 0.00 0.00 0.00 0.00 0.00 0.00 0.01 0.01 0.01 0.01 0.01 0.01 0.01 0.01 0.01 0.01 0.00 0.00 0.00 0.01 0.01 0.01 0.01 0.01 0.01 0.01 0.01 0.01 0.01 0.01
0.00 0.01 0.01 0.01 0.01 0.02 0.01 0.01 0.02 0.02 0.02 0.02 0.02 0.02 0.01 0.01 0.01 0.01 0.01 0.01 0.01 0.01 0.01 0.01 0.01 0.01 0.01 0.01 0.01 0.01 0.00 0.00 0.00 0.00 0.00 0.00 0.00 0.00 0.00 0.00 0.00 0.01 0.01 0.01
MSLP
1017.03 1017.00 1017.00 1017.07 1017.19 1017.37 1017.55 1017.71 1017.80 1017.79 1017.65 1017.40 1017.06 1016.65 1016.22 1015.80 1015.44 1015.15 1014.93 1014.77 1014.67 1014.61 1014.57 1014.57 1014.60 1014.68 1014.83 1015.05 1015.36 1015.74 1016.18 1016.66 1017.14 1017.61 1018.05 1018.45 1018.80 1019.12 1019.41 1019.69 1019.97 1020.27 1020.58 1020.91
1016.83 1016.70 1016.63 1016.66 1016.80 1017.01 1017.27 1017.50 1017.66 1017.68 1017.53 1017.22 1016.76 1016.20 1015.61 1015.05 1014.56 1014.18 1013.92 1013.76 1013.69 1013.68 1013.69 1013.73 1013.78 1013.86 1013.99 1014.19 1014.47 1014.84 1015.29 1015.79 1016.32 1016.85 1017.34 1017.79 1018.18 1018.51 1018.79 1019.06 1019.31 1019.58 1019.87 1020.19
1016.65 1016.44 1016.31 1016.31 1016.44 1016.69 1017.01 1017.30 1017.50 1017.53 1017.35 1016.96 1016.37 1015.66 1014.90 1014.18 1013.55 1013.08 1012.76 1012.59 1012.54 1012.57 1012.63 1012.71 1012.79 1012.87 1013.00 1013.18 1013.45 1013.81 1014.27 1014.81 1015.38 1015.97 1016.52 1017.02 1017.45 1017.80 1018.09 1018.35 1018.59 1018.84 1019.12 1019.43
1016.50 1016.23 1016.05 1016.02 1016.15 1016.42 1016.77 1017.10 1017.32 1017.34 1017.10 1016.61 1015.90 1015.03 1014.10 1013.21 1012.45 1011.87 1011.49 1011.30 1011.26 1011.32 1011.42 1011.53 1011.64 1011.74 1011.87 1012.05 1012.31 1012.68 1013.15 1013.72 1014.34 1014.98 1015.58 1016.13 1016.60 1016.98 1017.29 1017.56 1017.80 1018.05 1018.32 1018.62
1016.36 1016.05 1015.84 1015.78 1015.90 1016.17 1016.53 1016.87 1017.07 1017.06 1016.76 1016.17 1015.32 1014.30 1013.22 1012.18 1011.30 1010.62 1010.18 1009.96 1009.92 1009.99 1010.12 1010.26 1010.39 1010.51 1010.65 1010.83 1011.10 1011.47 1011.97 1012.56 1013.22 1013.89 1014.55 1015.14 1015.65 1016.06 1016.41 1016.69 1016.95 1017.21 1017.49 1017.79
1016.21 1015.87 1015.63 1015.55 1015.66 1015.91 1016.25 1016.56 1016.73 1016.65 1016.27 1015.58 1014.61 1013.47 1012.27 1011.12 1010.13 1009.38 1008.89 1008.64 1008.59 1008.67 1008.82 1008.98 1009.13 1009.27 1009.41 1009.61 1009.88 1010.27 1010.77 1011.38 1012.06 1012.77 1013.46 1014.09 1014.64 1015.10 1015.48 1015.80 1016.09 1016.38 1016.68 1016.98
1015.99 1015.65 1015.39 1015.29 1015.37 1015.59 1015.88 1016.13 1016.23 1016.07 1015.60 1014.82 1013.77 1012.54 1011.25 1010.03 1008.99 1008.20 1007.68 1007.42 1007.37 1007.46 1007.62 1007.80 1007.96 1008.11 1008.26 1008.46 1008.75 1009.14 1009.65 1010.27 1010.97 1011.70 1012.41 1013.07 1013.66 1014.16 1014.59 1014.96 1015.30 1015.63 1015.95 1016.27
1015.70 1015.36 1015.10 1014.98 1015.02 1015.18 1015.40 1015.56 1015.56 1015.31 1014.75 1013.89 1012.78 1011.51 1010.19 1008.96 1007.91 1007.13 1006.62 1006.37 1006.33 1006.44 1006.61 1006.80 1006.98 1007.14 1007.30 1007.51 1007.79 1008.19 1008.70 1009.33 1010.03 1010.77 1011.50 1012.19 1012.81 1013.36 1013.83 1014.26 1014.65 1015.02 1015.38 1015.71
1015.31 1014.99 1014.73 1014.59 1014.58 1014.67 1014.79 1014.84 1014.73 1014.37 1013.73 1012.81 1011.67 1010.39 1009.10 1007.92 1006.93 1006.20 1005.74 1005.54 1005.54 1005.67 1005.87 1006.08 1006.27 1006.44 1006.61 1006.82 1007.11 1007.51 1008.02 1008.64 1009.34 1010.08 1010.82 1011.53 1012.18 1012.76 1013.29 1013.77 1014.21 1014.62 1015.01 1015.37
1014.84 1014.53 1014.28 1014.12 1014.05 1014.06 1014.06 1013.99 1013.75 1013.28 1012.56 1011.61 1010.47 1009.24 1008.02 1006.93 1006.05 1005.43 1005.07 1004.96 1005.02 1005.21 1005.44 1005.67 1005.88 1006.07 1006.25 1006.47 1006.77 1007.16 1007.67 1008.28 1008.97 1009.70 1010.45 1011.16 1011.83 1012.44 1013.00 1013.52 1014.01 1014.46 1014.87 1015.24
1014.26 1013.98 1013.74 1013.56 1013.43 1013.34 1013.23 1013.02 1012.65 1012.08 1011.29 1010.31 1009.21 1008.06 1006.96 1006.02 1005.29 1004.81 1004.59 1004.59 1004.76 1005.02 1005.31 1005.59 1005.83 1006.04 1006.25 1006.49 1006.79 1007.18 1007.69 1008.29 1008.96 1009.68 1010.40 1011.11 1011.78 1012.41 1012.99 1013.53 1014.03 1014.51 1014.93 1015.30
1013.59 1013.33 1013.09 1012.89 1012.70 1012.52 1012.28 1011.94 1011.45 1010.79 1009.95 1008.97 1007.92 1006.87 1005.92 1005.14 1004.59 1004.30 1004.24 1004.38 1004.67 1005.03 1005.40 1005.74 1006.04 1006.30 1006.55 1006.81 1007.14 1007.53 1008.03 1008.61 1009.26 1009.95 1010.65 1011.34 1011.99 1012.61 1013.18 1013.72 1014.23 1014.70 1015.12 1015.48
1012.79 1012.54 1012.30 1012.06 1011.82 1011.55 1011.20 1010.75 1010.16 1009.42 1008.55 1007.59 1006.61 1005.67 1004.87 1004.27 1003.92 1003.81 1003.92 1004.22 1004.65 1005.12 1005.60 1006.04 1006.42 1006.75 1007.05 1007.36 1007.71 1008.13 1008.62 1009.19 1009.81 1010.46 1011.13 1011.77 1012.39 1012.97 1013.51 1014.02 1014.51 1014.95 1015.35 1015.69
1011.83 1011.58 1011.31 1011.04 1010.74 1010.39 1009.95 1009.41 1008.74 1007.95 1007.07 1006.15 1005.24 1004.43 1003.78 1003.36 1003.18 1003.25 1003.53 1003.99 1004.56 1005.17 1005.78 1006.33 1006.81 1007.24 1007.63 1008.01 1008.41 1008.85 1009.35 1009.91 1010.50 1011.11 1011.72 1012.31 1012.87 1013.39 1013.88 1014.35 1014.78 1015.19 1015.55 1015.85
1010.68 1010.39 1010.09 1009.77 1009.41 1009.00 1008.50 1007.89 1007.18 1006.38 1005.51 1004.63 1003.81 1003.12 1002.60 1002.33 1002.31 1002.53 1002.98 1003.59 1004.30 1005.05 1005.79 1006.47 1007.09 1007.64 1008.14 1008.61 1009.09 1009.58 1010.09 1010.64 1011.21 1011.77 1012.33 1012.85 1013.35 1013.81 1014.23 1014.63 1015.00 1015.35 1015.66 1015.93
1009.34 1008.98 1008.62 1008.24 1007.83 1007.36 1006.82 1006.19 1005.47 1004.68 1003.85 1003.05 1002.31 1001.72 1001.32 1001.17 1001.27 1001.62 1002.19 1002.93 1003.77 1004.66 1005.55 1006.38 1007.15 1007.85 1008.48 1009.07 1009.63 1010.18 1010.73 1011.29 1011.84 1012.37 1012.87 1013.34 1013.77 1014.15 1014.51 1014.83 1015.13 1015.41 1015.67 1015.90
1007.83 1007.38 1006.94 1006.49 1006.03 1005.53 1004.97 1004.35 1003.66 1002.91 1002.15 1001.42 1000.77 1000.26 999.96 999.90 1000.09 1000.53 1001.18 1002.02 1002.97 1003.99 1005.02 1006.01 1006.93 1007.79 1008.57 1009.29 1009.96 1010.60 1011.20 1011.78 1012.33 1012.84 1013.31 1013.73 1014.10 1014.42 1014.71 1014.97 1015.20 1015.42 1015.62 1015.79
1006.23 1005.67 1005.13 1004.62 1004.11 1003.60 1003.06 1002.47 1001.84 1001.17 1000.48 999.83 999.27 998.84 998.59 998.58 998.82 999.31 1000.02 1000.92 1001.96 1003.09 1004.24 1005.38 1006.47 1007.48 1008.42 1009.28 1010.08 1010.81 1011.48 1012.10 1012.66 1013.17 1013.63 1014.02 1014.36 1014.64 1014.87 1015.07 1015.25 1015.40 1015.54 1015.67
1004.66 1003.99 1003.36 1002.79 1002.26 1001.75 1001.24 1000.72 1000.16 999.58 998.99 998.43 997.93 997.56 997.35 997.37 997.62 998.12 998.85 999.78 1000.88 1002.09 1003.34 1004.61 1005.84 1007.01 1008.10 1009.10 1010.01 1010.84 1011.59 1012.26 1012.86 1013.40 1013.86 1014.25 1014.57 1014.83 1015.04 1015.20 1015.32 1015.42 1015.51 1015.58
1003.26 1002.49 1001.79 1001.18 1000.64 1000.16 999.71 999.26 998.80 998.32 997.82 997.34 996.90 996.57 996.38 996.39 996.63 997.11 997.83 998.78 999.90 1001.16 1002.50 1003.87 1005.22 1006.51 1007.72 1008.84 1009.86 1010.79 1011.61 1012.34 1012.99 1013.56 1014.05 1014.46 1014.79 1015.05 1015.24 1015.38 1015.46 1015.52 1015.54 1015.56
1002.13 1001.30 1000.57 999.95 999.43 998.99 998.61 998.25 997.89 997.50 997.09 996.67 996.29 995.98 995.80 995.79 996.00 996.45 997.15 998.08 999.20 1000.49 1001.88 1003.31 1004.74 1006.13 1007.43 1008.64 1009.75 1010.74 1011.63 1012.42 1013.12 1013.73 1014.25 1014.69 1015.05 1015.32 1015.51 1015.63 1015.68 1015.69 1015.66 1015.61
1001.34 1000.51 999.79 999.19 998.72 998.34 998.04 997.77 997.49 997.18 996.85 996.50 996.15 995.86 995.68 995.65 995.84 996.25 996.91 997.82 998.93 1000.22 1001.62 1003.09 1004.56 1005.99 1007.35 1008.61 1009.76 1010.80 1011.73 1012.55 1013.29 1013.94 1014.50 1014.97 1015.35 1015.64 1015.83 1015.94 1015.96 1015.92 1015.83 1015.71
1000.93 1000.14 999.47 998.93 998.52 998.22 997.99 997.79 997.59 997.36 997.09 996.79 996.48 996.21 996.03 996.00 996.16 996.55 997.19 998.06 999.16 1000.42 1001.82 1003.28 1004.75 1006.19 1007.55 1008.81 1009.97 1011.01 1011.95 1012.79 1013.55 1014.22 1014.81 1015.30 1015.70 1016.00 1016.19 1016.28 1016.26 1016.17 1016.02 1015.83
1000.85 1000.14 999.55 999.09 998.76 998.53 998.38 998.25 998.11 997.94 997.72 997.46 997.20 996.96 996.80 996.78 996.95 997.33 997.96 998.81 999.88 1001.12 1002.48 1003.90 1005.34 1006.73 1008.05 1009.27 1010.39 1011.40 1012.32 1013.15 1013.90 1014.57 1015.16 1015.67 1016.08 1016.37 1016.55 1016.61 1016.56 1016.41 1016.19 1015.93
1001.04 1000.43 999.94 999.57 999.31 999.15 999.05 998.97 998.89 998.76 998.60 998.39 998.18 997.99 997.88 997.90 998.10 998.51 999.14 999.98 1001.03 1002.23 1003.54 1004.90 1006.26 1007.57 1008.81 1009.95 1011.00 1011.95 1012.81 1013.59 1014.31 1014.97 1015.55 1016.04 1016.44 1016.72 1016.88 1016.90 1016.81 1016.60 1016.32 1015.99
1001.41 1000.90 1000.49 1000.20 1000.01 999.90 999.84 999.81 999.77 999.69 999.58 999.44 999.29 999.18 999.15 999.24 999.50 999.96 1000.61 1001.46 1002.49 1003.64 1004.89 1006.16 1007.42 1008.62 1009.75 1010.78 1011.73 1012.59 1013.37 1014.09 1014.76 1015.38 1015.93 1016.40 1016.77 1017.02 1017.14 1017.13 1016.99 1016.73 1016.39 1016.01
Thickness
5548 5551 5564 5577 5581 5583 5583 5585 5588 5598 5607 5607 5610 5620 5634 5643 5643 5648 5654 5660 5665 5673 5683 5686 5688 5690 5690 5691 5691 5692 5692 5691 5688 5685 5684 5682 5682 5682 5680 5678 5676 5674 5671 5669
5534 5549 5568 5568 5569 5569 5570 5573 5578 5586 5594 5596 5599 5610 5625 5636 5641 5647 5653 5658 5664 5670 5676 5680 5683 5685 5686 5688 5689 5690 5690 5690 5688 5687 5685 5683 5682 5681 5680 5678 5675 5673 5670 5668
5533 5552 5557 5554 5555 5557 5563 5568 5573 5573 5579 5584 5586 5598 5616 5631 5637 5644 5650 5657 5662 5667 5672 5677 5679 5680 5681 5683 5685 5687 5688 5688 5687 5685 5682 5679 5677 5676 5675 5675 5674 5672 5669 5666
5520 5536 5541 5543 5549 5553 5558 5567 5564 5563 5562 5566 5572 5579 5610 5622 5630 5640 5647 5652 5657 5663 5668 5671 5673 5675 5676 5679 5681 5682 5684 5683 5683 5681 5678 5676 5674 5674 5676 5674 5672 5670 5666 5664
5515 5524 5528 5535 5547 5548 5551 5558 5554 5552 5549 5551 5558 5562 5596 5612 5622 5636 5645 5649 5654 5658 5662 5665 5668 5670 5672 5674 5675 5676 5677 5678 5677 5676 5675 5673 5671 5672 5671 5668 5666 5665 5662 5660
5506 5515 5521 5532 5540 5540 5541 5540 5539 5536 5533 5539 5558 5552 5583 5601 5623 5633 5640 5644 5648 5652 5655 5658 5660 5662 5664 5665 5667 5668 5669 5670 5671 5670 5669 5668 5667 5666 5663 5661 5660 5659 5657 5655
5489 5497 5510 5520 5522 5525 5528 5526 5522 5523 5527 5538 5554 5550 5584 5605 5621 5630 5636 5638 5641 5644 5645 5646 5649 5651 5653 5655 5657 5659 5660 5661 5662 5661 5661 5661 5660 5659 5657 5655 5653 5651 5650 5649
5479 5489 5502 5510 5519 5523 5526 5525 5522 5518 5520 5526 5534 5548 5587 5601 5610 5618 5625 5629 5631 5632 5633 5635 5637 5639 5641 5643 5645 5647 5649 5650 5651 5651 5651 5651 5650 5648 5648 5647 5645 5644 5643 5643
5477 5486 5502 5507 5516 5517 5513 5517 5525 5514 5507 5509 5518 5537 5566 5587 5594 5602 5608 5613 5615 5617 5619 5621 5623 5626 5628 5630 5632 5634 5636 5638 5639 5640 5640 5639 5639 5638 5637 5637 5635 5634 5633 5632
5474 5475 5487 5496 5499 5505 5510 5513 5506 5502 5503 5505 5516 5532 5559 5579 5585 5590 5593 5597 5600 5602 5604 5606 5609 5611 5613 5615 5617 5619 5621 5623 5624 5626 5626 5627 5626 5626 5625 5623 5622 5621 5621 5620
5465 5464 5471 5477 5487 5497 5497 5498 5501 5501 5500 5501 5504 5535 5566 5574 5578 5580 5583 5586 5587 5588 5589 5590 5593 5595 5596 5598 5601 5603 5605 5607 5608 5609 5610 5611 5612 5611 5611 5610 5609 5608 5608 5607
5461 5458 5460 5471 5484 5493 5495 5499 5500 5494 5494 5496 5507 5533 5564 5563 5567 5569 5570 5571 5571 5571 5571 5573 5575 5576 5579 5581 5584 5586 5588 5590 5592 5593 5594 5595 5595 5595 5595 5595 5595 5594 5594 5594
5456 5450 5451 5454 5461 5469 5476 5486 5493 5495 5491 5490 5496 5523 5549 5548 5551 5553 5553 5552 5552 5552 5552 5554 5556 5558 5561 5564 5567 5569 5571 5573 5575 5576 5577 5577 5577 5578 5578 5578 5578 5578 5579 5579
5455 5443 5448 5457 5465 5469 5471 5478 5483 5483 5484 5489 5497 5517 5535 5536 5536 5537 5536 5535 5535 5535 5537 5538 5539 5542 5545 5547 5550 5552 5554 5555 5557 5558 5559 5559 5559 5560 5560 5561 5561 5562 5562 5563
5442 5435 5439 5448 5455 5454 5459 5467 5472 5475 5483 5483 5496 5505 5528 5532 5528 5525 5522 5520 5520 5522 5522 5524 5525 5526 5528 5530 5532 5534 5536 5538 5539 5540 5541 5541 5541 5542 5543 5543 5544 5545 5546 5547
5431 5427 5427 5432 5442 5445 5447 5455 5462 5468 5474 5478 5484 5496 5519 5521 5515 5512 5509 5509 5510 5511 5512 5512 5512 5511 5513 5514 5516 5517 5518 5520 5521 5522 5523 5523 5523 5524 5525 5525 5526 5527 5529 5530
5421 5418 5419 5423 5431 5428 5431 5455 5462 5465 5471 5474 5479 5499 5506 5503 5503 5503 5501 5499 5500 5501 5501 5499 5498 5498 5498 5498 5499 5498 5500 5502 5503 5503 5503 5504 5505 5507 5508 5509 5509 5511 5512 5514
5415 5413 5409 5408 5408 5415 5450 5466 5466 5465 5470 5474 5477 5486 5492 5496 5494 5490 5489 5488 5489 5489 5486 5484 5482 5480 5480 5480 5481 5481 5481 5482 5483 5484 5484 5485 5486 5488 5490 5491 5492 5493 5495 5496
5412 5408 5399 5399 5403 5412 5436 5450 5458 5457 5460 5470 5472 5477 5478 5477 5470 5468 5473 5476 5477 5475 5472 5469 5467 5465 5463 5462 5463 5463 5463 5463 5464 5464 5465 5466 5467 5469 5471 5473 5474 5475 5477 5479
5404 5403 5396 5393 5397 5403 5445 5453 5451 5448 5445 5465 5466 5467 5467 5462 5459 5474 5469 5462 5460 5457 5454 5452 5449 5448 5447 5446 5445 5446 5446 5445 5445 5446 5447 5448 5449 5450 5452 5453 5454 5456 5458 5460
5395 5393 5392 5391 5392 5406 5434 5437 5437 5430 5450 5460 5457 5457 5457 5455 5461 5462 5452 5445 5442 5439 5437 5435 5432 5431 5430 5429 5429 5429 5428 5426 5425 5426 5428 5429 5430 5431 5432 5433 5435 5436 5438 5441
5392 5391 5389 5385 5386 5406 5424 5420 5429 5437 5437 5437 5439 5440 5440 5438 5436 5433 5431 5426 5423 5420 5418 5416 5414 5412 5411 5411 5411 5411 5409 5407 5407 5408 5409 5411 5412 5412 5414 5414 5415 5416 5418 5420
5387 5395 5393 5396 5406 5410 5406 5411 5412 5412 5415 5417 5418 5419 5419 5417 5416 5414 5411 5408 5406 5403 5401 5399 5396 5394 5392 5392 5392 5391 5389 5388 5388 5389 5391 5392 5393 5394 5395 5395 5396 5397 5398 5400
5374 5378 5381 5385 5394 5392 5390 5390 5392 5392 5396 5398 5399 5400 5400 5399 5398 5396 5395 5392 5388 5385 5382 5380 5378 5376 5374 5373 5372 5371 5371 5370 5370 5371 5373 5374 5375 5376 5376 5376 5377 5377 5378 5380
5365 5365 5369 5376 5380 5376 5381 5378 5378 5377 5379 5379 5380 5381 5381 5382 5383 5382 5379 5374 5371 5368 5364 5362 5361 5358 5356 5354 5353 5352 5352 5353 5353 5355 5355 5355 5356 5356 5357 5359 5359 5359 5360 5359
5351 5357 5363 5374 5373 5370 5375 5370 5366 5364 5364 5363 5363 5363 5363 5364 5364 5361 5357 5354 5352 5348 5345 5343 5341 5339 5337 5335 5334 5333 5333 5335 5336 5338 5337 5336 5337 5338 5338 5340 5341 5342 5342 5344